Кюлекянь

Россия / Республика Саха (Якутия)     64°49′53″N   120°54′52″E
темп.,
°C
ветер,
м/с
пор.,
м/с
влажн.,
%
обл.,
%
осадки,
мм/ч
давл.,
гПа
погр.,
м
3 марта, ср
ср300:00−38с119657 0.0 102519
03:00−39с129745 0.0 102518
06:00−40с129717 0.0 102518
09:00−39ссз229733 0.0 102522
12:00−34ссз239479 0.0 1025235
15:00−31сз239388 0.0 1024362
18:00−31сз2696100 0.0 1024308
21:00−31ссз3797100 0.1 1024360
4 марта, чт
чт400:00−31сз3796100 0.1 1024384
03:00−32сз4894100 0.2 1023390
06:00−34сз4109399 0.0 1024354
09:00−35сз41093100 0.0 1024386
12:00−33сз499397 0.0 1024462
15:00−30сз499398 0.0 1025599
18:00−31сз3995100 0.0 1026357
21:00−34сз379797 0.1 1028148
5 марта, пт
пт500:00−36сз239724 0.0 102978
03:00−38зсз259714 0.0 102986
06:00−39зсз23985 0.0 103056
09:00−38зсз25979 0.0 1030112
12:00−32зсз249514 0.0 1030288
15:00−29з249445 0.0 1030371
18:00−32зсз129783 0.0 103019
21:00−34з119842 0.0 103119
6 марта, сб
сб600:00−36зсз11990 0.0 103019
03:00−37ссз00990 0.0 103019
06:00−37всв00980 0.0 102919
09:00−35всв00950 0.0 102819
12:00−28вюв11900 0.0 1027223
15:00−25юв11880 0.0 1026265
18:00−29юв11940 0.0 102519
21:00−32вюв22970 0.0 102519
7 марта, вс
вс700:00−33вюв22950 0.0 102419
03:00−34вюв22930 0.0 102419
06:00−34вюв23920 0.0 102422
09:00−31юв37930 0.0 1022179
12:00−25вюв369224 0.0 1020238
15:00−22вюв379251 0.0 1018288
18:00−22юв3793100 0.0 1017318
21:00−22юв3797100 0.2 1016300